Location: Oberkirch
(48.5323°N, 8.0787°E)
Time: 21:02:02
(UTC+00:00)

Tiros 1 - Pass Details

Date: 17 February 2026
Orbit: 618 x 649 km, 48.4° (Epoch: 7 March)

Event Time Altitude Azimuth Distance (km) Brightness Sun altitude
Rises 09:41:26 0° 248° (WSW) 2,903 10.4 24.0°
Reaches altitude 10° 09:43:46 10° 246° (WSW) 1,993 9.7 24.2°
Maximum altitude 09:48:19 69° 164° (SSE) 666 8.1 24.6°
Drops below altitude 10° 09:52:51 10° 81° (E) 1,984 10.0 24.9°
Sets 09:55:10 0° 79° (E) 2,890 10.7 25.1°
